When you browse on this site, cookies collect data to enhance your experience and personalize the content and advertising you see.
Visit our Privacy Policy to learn more. By continuing to use the site, you agree to this use of cookies and data.
  • In United Kingdom
  • List of Countries
  • For 7 days
  • Water Temperature
  • Satellite Maps
  • Weather Map
  • Weather Widgets
  • user-avatar
    Login

    Hourly Weather Sankt Polten

    Today, 11 December, Tuesday

    Time Temperature Precipitation Wind Pressure Humidity
    00:00 0°C° 0.1 mm 4 mps 735 mmHg 83%
    01:00 -1°C° 0 mm 4 mps 735 mmHg 82%
    02:00 -1°C° 0.1 mm 4 mps 735 mmHg 81%
    03:00 -1°C° 0.1 mm 5 mps 735 mmHg 80%
    04:00 -1°C° 0.1 mm 5 mps 735 mmHg 80%
    05:00 -1°C° 0.3 mm 6 mps 735 mmHg 80%
    06:00 -1°C° 0.3 mm 6 mps 735 mmHg 81%
    07:00 -1°C° 0.3 mm 6 mps 735 mmHg 81%
    08:00 -1°C° 0.4 mm 6 mps 735 mmHg 80%
    09:00 -1°C° 0.4 mm 7 mps 735 mmHg 79%
    10:00 0°C° 0.4 mm 7 mps 735 mmHg 79%
    11:00 0°C° 0.2 mm 7 mps 735 mmHg 77%
    12:00 0°C° 0.2 mm 7 mps 735 mmHg 75%
    13:00 0°C° 0.2 mm 7 mps 735 mmHg 73%
    14:00 0°C° 0.1 mm 7 mps 735 mmHg 74%
    15:00 0°C° 0.1 mm 7 mps 735 mmHg 75%
    16:00 -1°C° 0.1 mm 6 mps 736 mmHg 76%
    17:00 -1°C° 0.1 mm 6 mps 736 mmHg 77%
    18:00 -1°C° 0.1 mm 6 mps 736 mmHg 79%
    19:00 -1°C° 0.1 mm 6 mps 736 mmHg 80%
    20:00 -1°C° 0.2 mm 6 mps 736 mmHg 81%
    21:00 -1°C° 0.2 mm 6 mps 736 mmHg 82%
    22:00 -1°C° 0.2 mm 6 mps 737 mmHg 83%
    23:00 -1°C° 0.3 mm 6 mps 737 mmHg 83%

    Tomorrow, 12 December, Wednesday

    Time Temperature Precipitation Wind Pressure Humidity
    00:00 -1°C° 0.3 mm 6 mps 737 mmHg 84%
    01:00 0°C° 0.3 mm 5 mps 737 mmHg 85%
    02:00 0°C° 0.4 mm 5 mps 737 mmHg 85%
    03:00 -1°C° 0.4 mm 5 mps 737 mmHg 86%
    04:00 -1°C° 0.4 mm 5 mps 737 mmHg 86%
    05:00 -1°C° 0.5 mm 5 mps 737 mmHg 87%
    06:00 -1°C° 0.5 mm 4 mps 737 mmHg 88%
    07:00 -1°C° 0.5 mm 4 mps 738 mmHg 89%
    08:00 -1°C° 0.3 mm 4 mps 738 mmHg 88%
    09:00 -1°C° 0.3 mm 4 mps 738 mmHg 88%
    10:00 +1°C° 0.3 mm 3 mps 738 mmHg 87%
    11:00 +1°C° 0.2 mm 3 mps 738 mmHg 86%
    12:00 +1°C° 0.2 mm 3 mps 738 mmHg 85%
    13:00 +1°C° 0.2 mm 3 mps 738 mmHg 84%
    14:00 +1°C° 0.3 mm 3 mps 738 mmHg 86%
    15:00 +1°C° 0.3 mm 2 mps 738 mmHg 88%
    16:00 +1°C° 0.3 mm 2 mps 738 mmHg 90%
    17:00 +1°C° 0.2 mm 2 mps 739 mmHg 91%
    18:00 +1°C° 0.2 mm 1 mps 739 mmHg 92%
    19:00 +1°C° 0.2 mm 1 mps 739 mmHg 93%
    20:00 0°C° 0.1 mm 1 mps 739 mmHg 93%
    21:00 0°C° 0.1 mm 1 mps 739 mmHg 94%
    22:00 -1°C° 0.1 mm 1 mps 739 mmHg 94%
    23:00 -1°C° 0 mm 1 mps 739 mmHg 94%

    Day after tomorrow, 13 December, Thursday

    Time Temperature Precipitation Wind Pressure Humidity
    00:00 -2°C° 0 mm 1 mps 739 mmHg 94%
    01:00 -2°C° 0 mm 1 mps 739 mmHg 94%
    02:00 -3°C° 0 mm 1 mps 739 mmHg 93%
    03:00 -3°C° 0 mm 1 mps 739 mmHg 93%
    04:00 -3°C° 0 mm 1 mps 739 mmHg 93%
    05:00 -3°C° 0 mm 1 mps 739 mmHg 92%
    06:00 -3°C° 0 mm 1 mps 739 mmHg 92%
    07:00 -3°C° 0 mm 1 mps 739 mmHg 92%
    08:00 -2°C° 0 mm 1 mps 738 mmHg 89%
    09:00 -1°C° 0 mm 1 mps 738 mmHg 87%
    10:00 -2°C° 0 mm 2 mps 738 mmHg 85%
    11:00 -2°C° 0 mm 2 mps 738 mmHg 84%
    12:00 -1°C° 0 mm 2 mps 738 mmHg 82%
    13:00 -1°C° 0 mm 2 mps 737 mmHg 81%
    14:00 -1°C° 0 mm 2 mps 737 mmHg 84%
    15:00 -2°C° 0 mm 2 mps 737 mmHg 87%
    16:00 -2°C° 0 mm 2 mps 737 mmHg 89%
    17:00 -3°C° 0 mm 2 mps 737 mmHg 91%
    18:00 -3°C° 0 mm 2 mps 737 mmHg 92%
    19:00 -4°C° 0 mm 2 mps 738 mmHg 93%
    20:00 -4°C° 0 mm 2 mps 738 mmHg 93%
    21:00 -4°C° 0 mm 2 mps 738 mmHg 93%
    22:00 -4°C° 0 mm 2 mps 738 mmHg 93%
    23:00 -4°C° 0 mm 2 mps 738 mmHg 93%

    14 December, Friday

    Time Temperature Precipitation Wind Pressure Humidity
    00:00 -4°C° 0 mm 2 mps 738 mmHg 93%
    01:00 -4°C° 0 mm 2 mps 738 mmHg 93%
    02:00 -4°C° 0 mm 2 mps 738 mmHg 92%
    03:00 -4°C° 0 mm 2 mps 738 mmHg 92%
    04:00 -5°C° 0 mm 2 mps 738 mmHg 92%
    05:00 -4°C° 0 mm 2 mps 738 mmHg 92%
    06:00 -4°C° 0 mm 2 mps 738 mmHg 92%
    07:00 -4°C° 0 mm 2 mps 738 mmHg 92%
    08:00 -3°C° 0 mm 2 mps 738 mmHg 90%
    09:00 -3°C° 0 mm 2 mps 739 mmHg 88%
    10:00 -2°C° 0 mm 2 mps 739 mmHg 86%
    11:00 -1°C° 0 mm 2 mps 739 mmHg 83%
    12:00 -1°C° 0 mm 2 mps 739 mmHg 81%
    13:00 +1°C° 0 mm 2 mps 738 mmHg 79%
    14:00 -1°C° 0 mm 2 mps 738 mmHg 82%
    15:00 -1°C° 0 mm 2 mps 739 mmHg 86%
    16:00 -2°C° 0 mm 2 mps 739 mmHg 90%
    17:00 -3°C° 0.1 mm 2 mps 739 mmHg 91%
    18:00 -1°C° 0.1 mm 1 mps 739 mmHg 93%
    19:00 -1°C° 0.1 mm 1 mps 740 mmHg 94%
    20:00 -1°C° 0.1 mm 1 mps 740 mmHg 94%
    21:00 -2°C° 0.1 mm 1 mps 740 mmHg 94%
    22:00 -2°C° 0.1 mm 1 mps 741 mmHg 94%
    23:00 -2°C° 0.1 mm 1 mps 741 mmHg 94%

    15 December, Saturday

    Time Temperature Precipitation Wind Pressure Humidity
    00:00 -2°C° 0.1 mm 1 mps 741 mmHg 94%
    01:00 -2°C° 0.1 mm 1 mps 741 mmHg 93%
    02:00 -2°C° 0.1 mm 1 mps 741 mmHg 93%
    03:00 -2°C° 0.1 mm 1 mps 741 mmHg 93%
    04:00 -2°C° 0.1 mm 1 mps 742 mmHg 93%
    05:00 -2°C° 0.1 mm 1 mps 742 mmHg 93%
    06:00 -2°C° 0.1 mm 1 mps 742 mmHg 93%
    07:00 -2°C° 0.1 mm 1 mps 742 mmHg 93%
    08:00 -2°C° 0 mm 1 mps 742 mmHg 90%
    09:00 -1°C° 0 mm 1 mps 743 mmHg 87%
    10:00 0°C° 0 mm 1 mps 743 mmHg 85%
    11:00 0°C° 0 mm 1 mps 743 mmHg 82%
    12:00 +1°C° 0 mm 1 mps 743 mmHg 80%
    13:00 +1°C° 0 mm 1 mps 742 mmHg 78%
    14:00 +1°C° 0 mm 1 mps 743 mmHg 82%
    15:00 0°C° 0 mm 1 mps 743 mmHg 86%
    16:00 -1°C° 0 mm 1 mps 743 mmHg 89%
    17:00 -2°C° 0 mm 1 mps 743 mmHg 90%
    18:00 -2°C° 0 mm 1 mps 743 mmHg 91%
    19:00 -3°C° 0 mm 1 mps 744 mmHg 91%
    20:00 -3°C° 0 mm 1 mps 744 mmHg 90%
    21:00 -3°C° 0 mm 1 mps 744 mmHg 90%
    22:00 -3°C° 0 mm 1 mps 743 mmHg 89%
    23:00 -4°C° 0 mm 1 mps 743 mmHg 89%

    16 December, Sunday

    Time Temperature Precipitation Wind Pressure Humidity
    00:00 -4°C° 0 mm 1 mps 743 mmHg 88%
    01:00 -4°C° 0 mm 1 mps 743 mmHg 87%
    02:00 -4°C° 0 mm 1 mps 743 mmHg 86%
    03:00 -4°C° 0 mm 1 mps 743 mmHg 85%
    04:00 -4°C° 0 mm 1 mps 742 mmHg 84%
    05:00 -4°C° 0 mm 1 mps 742 mmHg 83%
    06:00 -4°C° 0 mm 1 mps 742 mmHg 83%
    07:00 -4°C° 0 mm 1 mps 742 mmHg 82%
    08:00 -2°C° 0 mm 1 mps 742 mmHg 79%
    09:00 -1°C° 0 mm 1 mps 742 mmHg 76%
    10:00 0°C° 0 mm 1 mps 742 mmHg 73%
    11:00 +1°C° 0 mm 1 mps 741 mmHg 72%
    12:00 +2°C° 0 mm 1 mps 741 mmHg 72%
    13:00 +3°C° 0 mm 1 mps 740 mmHg 72%
    14:00 +2°C° 0.1 mm 1 mps 740 mmHg 76%
    15:00 +2°C° 0.1 mm 1 mps 740 mmHg 80%
    16:00 +2°C° 0.1 mm 1 mps 739 mmHg 84%
    17:00 +2°C° 0.2 mm 1 mps 739 mmHg 85%
    18:00 +2°C° 0.2 mm 1 mps 739 mmHg 85%
    19:00 +2°C° 0.2 mm 1 mps 739 mmHg 85%
    20:00 +3°C° 0.2 mm 1 mps 739 mmHg 86%
    21:00 +3°C° 0.2 mm 1 mps 739 mmHg 87%
    22:00 +3°C° 0.2 mm 1 mps 739 mmHg 87%
    23:00 +3°C° 0.3 mm 1 mps 738 mmHg 88%
    Show more